Flag for Romania Weather past 2 weeks in Timișoara, Romania

Now
52 °F

Passing clouds.


Feels Like: 51 °F
Forecast: 45 / 58 °F
Wind: 5 mph from Southeast

Location: Timisoara Airport

Current Time: Oct 21, 2014 at 8:56:46 AM

Latest Report: Oct 21, 2014 at 8:30 AM


Visibility: N/A

Pressure: 29.89 "Hg

Humidity: 94%

Dew point: 50 °F

Location of TimișoaraLocation

Historic Weather in Timișoara — Graph

°F

Timișoara temperature yesterday

Maximum temperature yesterday: 72 °F (at 4:00 PM)
Minimum temperature yesterday: 45 °F (at 5:00 AM)
Average temperature yesterday: 57 °F

Past Weeks' High & Low Weather Summary

 TemperatureHumidityPressure
High81 °F (Oct 14, 3:30 PM)100% (Oct 6, 7:00 AM)30.39 "Hg (Oct 6, 7:00 AM)
Low43 °F (Oct 6, 7:00 AM)35% (Oct 6, 2:30 PM)29.80 "Hg (Oct 15, 11:00 AM)
Average60 °F83%30.05 "Hg
* Reported Oct 6 7:00 AM — Oct 21 7:30 AM, Timișoara, Weather by CustomWeather, © 2014

Note: Actual official high and low records may vary slightly from our data, if they occured in-between our weather recording intervals... More about our weather records

Advertising

Timișoara weather history for previous 24 hours

 ConditionsComfort  
Time TempWeatherWind HumidityBarometerVisibility
7:30 AM
Oct 21
52 °FPassing clouds.6 mph100%29.89 "HgN/A
7:00 AM52 °FPassing clouds.6 mph100%29.89 "HgN/A
6:00 AM50 °FClear.6 mph94%29.92 "Hg10 mi
5:30 AM50 °FClear.3 mph94%29.92 "Hg10 mi
5:00 AM50 °FClear.2 mph100%29.95 "Hg10 mi
4:30 AM50 °FClear.2 mph100%29.95 "Hg10 mi
3:30 AM52 °FClear.3 mph100%29.95 "Hg10 mi
3:00 AM52 °FPassing clouds.3 mph100%29.95 "HgN/A
2:30 AM52 °FPassing clouds.5 mph100%29.98 "HgN/A
2:00 AM52 °FClear.3 mph100%29.98 "Hg10 mi
1:30 AM52 °FClear.3 mph100%29.98 "Hg10 mi
1:00 AM54 °FClear.3 mph94%29.98 "Hg10 mi
12:30 AM54 °FClear.2 mph94%29.98 "Hg10 mi
12:00 AM54 °FClear.5 mph100%30.01 "Hg10 mi
11:30 PM
Oct 20
54 °FPassing clouds.3 mph94%30.01 "HgN/A
11:00 PM54 °FClear.3 mph100%30.04 "Hg10 mi
10:30 PM55 °FClear.2 mph94%30.04 "Hg10 mi
10:00 PM55 °FClear.3 mph94%30.04 "Hg10 mi
9:30 PM55 °FClear.2 mph100%30.04 "Hg10 mi
9:00 PM57 °FClear.3 mph94%30.04 "Hg10 mi
8:30 PM57 °FClear.2 mph100%30.04 "Hg10 mi
8:00 PM59 °FClear.3 mph94%30.04 "Hg10 mi
7:30 PM63 °FSunny.5 mph88%30.04 "Hg10 mi
7:00 PM64 °FSunny.5 mph83%30.04 "Hg10 mi
6:30 PM68 °FSunny.2 mph73%30.07 "Hg10 mi
6:00 PM70 °FSunny.3 mph69%30.07 "Hg10 mi
5:30 PM70 °FSunny.7 mph64%30.07 "Hg10 mi
5:00 PM70 °FPassing clouds.8 mph64%30.07 "HgN/A
4:30 PM70 °FPassing clouds.7 mph64%30.07 "HgN/A
4:00 PM72 °FPassing clouds.7 mph61%30.07 "HgN/A
3:30 PM70 °FPassing clouds.7 mph64%30.09 "HgN/A
3:00 PM70 °FPassing clouds.6 mph64%30.09 "HgN/A
2:30 PM70 °FPassing clouds.7 mph60%30.09 "HgN/A
2:00 PM68 °FPassing clouds.7 mph64%30.12 "HgN/A
1:30 PM66 °FPassing clouds.6 mph64%30.12 "HgN/A
1:00 PM64 °FPassing clouds.6 mph68%30.12 "HgN/A
12:30 PM63 °FPassing clouds.6 mph73%30.15 "HgN/A
12:00 PM61 °FPassing clouds.5 mph72%30.15 "HgN/A
11:30 AM59 °FPassing clouds.5 mph77%30.15 "HgN/A
11:00 AM55 °FPassing clouds.7 mph88%30.15 "HgN/A
10:30 AM55 °FPassing clouds.6 mph82%30.15 "HgN/A
10:00 AM52 °FPassing clouds.6 mph94%30.15 "HgN/A
9:30 AM50 °FSunny.8 mph94%30.15 "Hg10 mi
9:00 AM48 °FPassing clouds.7 mph94%30.15 "HgN/A
8:30 AM45 °FClear.7 mph100%30.15 "Hg10 mi
8:00 AM45 °FClear.5 mph100%30.15 "Hg10 mi
Weather by CustomWeather, © 2014

See weather overviewHow to use our weather pages